General Aviation Weather

Text Reports

Enter one or more of the following location identifiers separated by a space:

Zip Code, Four-Character ICAO or Three-Character IATA airport codes.

METAR - Aviation Routine Weather Report
KRAC - Racine, Wisconsin
Updated at 5:53 PM GMT on July 22, 2014 (12:53 PM CDT):
METAR KRAC 221753Z AUTO 22009G18KT 10SM FEW060 31/22 A2995 RMK AO2 SLP137 T03060222 10306 20228 58010
TAF - Terminal Area Forecast
KRAC - Racine, Wisconsin
Updated at 5:53 PM GMT on July 22, 2014 (12:53 PM CDT):
No TAF is currently available for this location.
Decoded:
No decoded TAF is available.
PIREP - Pilot Weather Report
KRAC - Racine, Wisconsin
Updated at 5:53 PM GMT on July 22, 2014 (12:53 PM CDT):
No PIREP is currently available for this location.
AIRMET - Airmens Meteorological Information
KRAC - Racine, Wisconsin
Updated at 5:53 PM GMT on July 22, 2014 (12:53 PM CDT):
No AIRMET is currently available for this location.
SIGMET - Significant Meteorological Information
KRAC - Racine, Wisconsin
Updated at 5:53 PM GMT on July 22, 2014 (12:53 PM CDT):
No SIGMET is currently available for this location.
NOTAM - Notice to Airmen
KRAC - Racine, Wisconsin
Updated at 5:53 PM GMT on July 22, 2014 (12:53 PM CDT):
No NOTAM is currently available for this location.
Forecast Area
KRAC - Racine, Wisconsin
Updated at 5:53 PM GMT on July 22, 2014 (12:53 PM CDT):
No NOTAM is currently available for this location.
Aviation Weather Maps